RH
93 96 95 94 94 96 96 96 99 98 75 58 42 44 46 49 49 47 48 46 43 46 41 41 48 53 51 53 35 29 29 30 36 42 35 32 29 30 30 29 24 26 30 35 30 28 28
95 95 96 95 95 96 96 96 98 100 98 72 39 35 36 37 41 42 42 42 39 42 37 42 43 48 44 39 29 30 31 32 33 36 30 27 28 25 29 28 20 28 32 33 27 28 30
94 94 94 96 93 94 96 96 96 99 100 98 74 32 32 34 36 37 37 36 35 34 31 39 42 44 33 28 30 30 30 32 33 32 31 28 23 19 23 27 29 32 27 31 31 33 32
96 96 94 91 95 79 94 96 94 95 100 100 73 37 29 32 31 32 33 34 33 33 34 34 39 33 31 30 31 31 31 34 33 32 28 28 24 28 24 27 29 29 33 28 32 36 31
96 95 95 86 64 93 54 66 93 84 98 99 57 40 33 30 32 29 30 29 29 30 30 28 29 31 34 30 30 31 31 30 29 28 26 25 24 30 26 28 27 32 18 30 34 36 34
96 96 93 85 78 57 66 39 38 73 52 75 54 43 36 33 32 28 27 30 30 32 32 30 29 28 30 34 31 31 32 30 29 31 26 30 38 34 39 29 24 24 27 27 33 33 31
98 95 95 89 74 64 57 50 38 33 34 42 49 47 42 36 31 30 30 40 43 35 32 32 32 33 36 32 32 31 29 28 28 29 28 35 27 24 30 34 24 27 20 22 32 31 28
92 95 95 87 67 69 60 53 48 37 32 33 45 44 39 34 32 31 41 45 42 36 36 31 34 34 33 34 35 33 30 28 31 36 31 33 26 28 26 26 23 21 21 32 34 32 31
87 87 92 95 79 64 62 60 56 47 40 28 40 40 40 33 29 43 40 45 47 46 36 33 32 33 34 37 37 35 33 29 31 34 27 26 25 30 24 27 29 32 28 35 32 33 33
94 84 72 76 83 70 66 63 59 56 46 40 31 45 38 35 33 46 46 40 43 47 73 36 35 31 37 35 28 31 27 30 30 35 40 34 30 27 28 30 32 31 33 36 37 26 28
97 92 84 72 70 72 72 68 64 60 58 46 36 47 38 40 50 48 46 40 45 46 53 36 40 32 34 38 34 27 25 28 38 39 35 36 35 33 30 30 33 36 36 39 42 48 42
93 94 97 91 76 71 70 71 67 62 59 57 44 38 49 47 50 48 45 42 51 60 38 46 39 41 40 34 38 31 26 26 35 38 40 39 32 30 33 39 38 43 50 61 69 64 65
99 99 97 93 92 77 74 70 71 66 62 57 54 40 55 48 49 45 40 57 60 64 32 47 46 45 39 42 37 33 32 37 45 42 43 43 39 35 34 46 40 48 49 70 63 80 61
97 100 98 87 95 85 76 75 71 68 63 61 53 45 47 48 47 42 52 48 34 27 49 40 47 43 44 42 37 41 36 37 33 44 57 59 48 44 34 37 45 54 44 63 38 72 70
100 100 96 99 100 99 88 77 73 73 67 62 56 52 60 49 45 59 60 73 40 33 47 50 35 41 43 36 38 35 40 38 35 48 33 44 44 38 37 37 41 50 65 47 69 68 66
94 99 99 97 96 100 99 88 78 74 69 65 62 62 77 58 57 64 74 60 33 38 45 38 41 36 50 46 41 40 42 34 34 38 34 46 53 43 42 40 44 43 44 58 76 57 54
94 97 100 96 95 99 98 97 82 77 68 69 77 87 76 69 61 77 84 63 48 48 37 38 38 38 32 46 45 47 34 30 30 34 34 41 48 56 43 51 56 58 59 65 64 54 63
91 98 100 97 98 98 100 100 93 80 69 68 84 77 81 77 87 87 83 62 49 44 43 37 29 31 40 46 41 42 36 36 33 37 40 36 58 80 50 48 46 46 55 59 63 53 75
87 89 99 100 96 97 98 98 100 87 71 62 75 80 87 87 86 86 77 60 47 50 48 48 45 40 30 44 34 38 36 36 37 39 47 51 63 75 55 55 53 56 56 58 69 74 79
83 88 91 100 100 99 93 88 100 95 75 65 85 88 93 95 90 55 61 61 56 50 44 44 42 42 40 37 38 50 46 37 36 39 50 48 60 48 44 42 64 63 60 66 58 84 67
73 81 91 94 99 99 100 91 98 99 86 66 92 81 78 98 96 82 64 49 62 55 54 49 47 45 43 47 47 50 52 46 42 59 54 47 61 58 52 57 53 52 61 74 68 55 64
71 71 83 91 98 100 100 99 99 99 99 84 85 90 80 80 70 84 74 63 63 56 62 58 52 49 48 47 41 50 58 52 45 52 57 62 80 81 73 62 63 64 57 66 66 60 63
77 71 70 76 87 99 98 99 97 98 100 98 81 82 67 69 69 79 78 59 48 56 56 50 51 55 58 49 46 51 51 52 50 58 64 65 86 80 61 61 68 72 67 62 64 63 56
73 75 70 67 72 80 97 93 94 97 98 100 98 94 88 80 66 68 54 62 56 59 44 56 54 53 50 56 49 43 56 65 67 75 62 76 76 80 88 75 73 50 48 49 55 66 65
80 72 73 70 67 72 88 94 96 94 96 97 100 100 95 97 64 56 55 50 57 60 61 63 59 58 56 46 60 63 64 56 66 78 70 67 74 94 85 87 63 58 61 68 60 64 63
78 79 74 74 69 68 83 94 98 97 96 100 98 98 97 100 75 52 54 54 65 70 69 67 56 57 47 55 60 78 85 72 69 70 67 76 70 78 90 87 84 52 49 47 38 50 61
71 80 80 74 72 68 78 88 91 90 97 99 98 97 100 100 86 70 78 76 62 67 77 69 65 57 55 60 68 73 67 55 72 76 87 94 89 80 84 91 81 54 48 42 52 49 51
69 77 81 80 74 71 69 71 77 89 96 100 98 98 97 100 94 79 82 71 79 75 83 70 69 67 72 69 77 68 66 56 59 60 80 86 92 92 88 94 92 50 46 47 48 41 39
72 72 81 83 78 74 71 69 78 81 100 96 100 100 100 98 100 100 100 100 94 84 74 73 74 73 74 84 91 84 71 73 57 67 58 70 70 81 78 74 49 41 42 40 34 37 36
Wind_Speed
17 17 16 17 18 17 16 16 15 12 10 9 8 8 7 7 8 8 6 7 8 5 3 4 8 11 7 4 6 0 1 4 8 11 8 4 8 5 5 3 4 3 3 3 2 4 4
16 18 17 16 18 19 18 16 17 15 11 11 9 9 8 8 8 8 8 6 6 4 3 4 10 12 4 5 1 2 1 4 7 7 4 4 6 5 5 3 3 3 3 3 1 2 2
14 14 16 17 16 18 19 18 16 17 14 12 11 9 9 8 8 9 7 5 7 5 4 4 9 11 3 5 1 4 2 5 5 4 3 2 9 5 5 5 3 5 3 2 2 3 2
15 16 14 15 18 17 18 20 19 16 16 13 10 9 9 8 8 8 7 5 6 6 6 7 9 6 4 2 2 2 3 5 5 4 2 6 10 6 4 4 6 4 4 2 2 5 1
15 15 17 16 15 17 17 19 20 20 17 16 10 7 8 9 7 7 7 6 5 5 5 7 5 4 3 2 1 1 3 4 6 7 4 7 4 4 4 6 4 4 3 4 2 6 4
17 17 17 17 18 17 18 18 19 20 21 15 13 9 7 8 7 6 6 3 2 2 4 4 4 1 2 4 3 3 3 5 5 5 3 4 6 4 4 4 6 7 4 3 4 5 3
19 19 19 19 19 19 19 19 20 20 20 18 13 11 8 7 6 5 1 1 3 1 2 4 3 2 3 4 4 2 3 5 4 4 5 2 4 7 11 7 3 6 3 4 1 3 3
23 22 21 20 20 21 20 19 19 20 21 22 14 10 8 5 4 4 2 3 2 1 2 2 2 2 4 4 3 1 4 4 4 4 4 5 4 5 6 5 3 2 3 1 1 2 2
24 25 24 23 22 20 21 21 20 19 20 21 16 11 9 7 3 3 2 3 4 2 2 3 3 3 3 5 3 7 5 4 4 5 4 6 2 6 5 4 5 1 4 4 2 1 0
26 25 26 26 25 24 23 23 22 20 18 20 20 12 8 7 3 2 2 5 3 2 4 4 4 4 4 3 1 2 3 4 1 6 7 4 3 5 4 4 5 4 4 4 4 3 3
27 29 29 28 27 27 26 24 23 22 21 18 18 14 8 5 3 3 3 5 2 2 3 1 2 3 3 4 5 2 2 1 6 5 6 5 6 4 4 4 4 3 3 4 3 4 2
28 27 30 32 30 29 29 28 25 23 22 21 18 13 11 4 6 4 7 3 2 6 6 4 3 5 4 2 2 3 3 2 4 5 5 2 1 1 3 4 3 6 6 7 5 3 1
30 30 31 31 34 32 32 30 28 26 24 22 20 17 9 7 2 7 8 3 5 4 0 5 5 5 4 5 3 5 5 5 6 5 3 3 1 1 3 6 4 4 6 2 3 2 5
32 31 32 34 32 35 34 33 29 28 25 24 21 17 8 12 7 10 4 4 3 4 7 2 4 3 7 7 5 6 6 5 5 4 4 6 3 7 3 3 6 5 6 5 7 4 3
28 30 32 36 38 30 37 34 30 28 25 24 24 9 6 11 13 11 5 2 8 7 7 10 4 4 4 4 5 4 7 5 8 9 6 5 1 2 3 2 3 5 4 3 7 3 2
30 32 33 35 42 40 33 37 30 26 23 21 16 6 7 13 14 7 3 7 6 5 6 3 9 6 9 7 6 7 8 4 5 7 2 7 5 2 1 2 3 2 4 3 2 3 4
35 33 33 35 39 41 41 33 32 25 19 19 7 3 6 18 16 2 4 8 6 6 4 7 9 5 6 8 9 6 6 3 4 5 4 5 4 1 2 6 8 3 2 4 4 3 4
33 32 29 32 34 42 43 28 31 24 16 11 4 3 12 20 3 2 4 7 6 5 2 2 4 4 9 9 7 6 10 5 9 9 9 4 5 4 4 1 2 2 5 5 4 5 1
33 32 32 31 34 37 44 50 30 25 16 4 3 3 4 4 5 4 4 4 6 6 5 7 7 6 4 8 5 6 6 1 6 7 10 9 1 3 5 3 3 4 5 4 5 3 6
33 33 31 32 32 33 38 39 24 24 20 11 1 2 2 2 1 5 6 5 5 5 4 4 3 5 3 4 3 7 5 1 4 3 4 6 3 6 9 5 6 6 7 6 6 4 4
31 33 32 29 34 34 30 34 39 21 24 13 3 5 3 4 6 7 6 6 7 7 5 6 2 6 7 5 3 5 3 3 4 6 3 5 5 3 0 3 3 4 6 10 8 9 7
31 31 33 33 28 30 36 28 28 36 24 10 4 3 2 2 2 13 8 6 9 4 8 5 5 7 6 6 8 10 8 5 6 2 4 2 3 3 2 1 1 3 3 9 8 3 7
29 30 31 31 33 27 31 34 26 25 21 2 4 2 3 1 2 4 5 11 13 6 7 6 12 6 7 8 3 0 4 5 7 8 5 6 6 3 3 3 5 5 10 13 5 4 5
29 29 29 30 30 33 29 29 31 26 20 14 4 2 3 6 4 4 3 7 7 7 10 3 4 7 3 8 7 7 10 11 9 7 4 6 5 3 2 2 2 4 1 3 8 1 2
30 29 29 30 30 29 32 29 29 27 26 15 12 4 1 3 7 8 7 2 2 3 3 5 1 1 7 5 4 4 4 2 3 5 4 2 5 3 5 4 5 4 5 7 7 5 4
30 29 27 28 29 30 30 29 29 29 24 19 17 12 3 1 3 3 5 4 5 3 2 2 2 2 2 3 3 6 5 6 5 2 5 4 4 3 3 4 8 2 2 4 3 3 8
29 29 27 27 28 29 29 29 30 29 28 25 11 11 4 2 2 2 4 4 4 2 3 3 4 2 4 2 2 3 4 4 6 9 6 4 1 7 4 3 6 3 5 3 6 3 7
28 28 27 26 26 28 30 31 31 31 27 24 25 18 9 2 1 3 2 3 2 2 4 4 4 1 2 2 3 4 3 5 4 5 6 8 8 4 3 3 8 6 4 7 4 5 9
27 27 25 25 25 26 28 30 31 31 30 27 8 19 16 2 2 3 6 7 4 3 2 3 2 3 3 3 0 2 2 2 4 3 2 3 4 5 6 2 2 3 3 7 5 8 5
Wind_Direction
12 13 14 5 1 358 359 353 346 339 325 313 301 294 289 292 298 304 301 290 291 304 313 170 181 175 177 247 251 269 207 199 185 182 211 202 96 119 156 162 119 122 135 68 82 75 89
17 7 8 11 2 356 356 357 348 342 336 317 298 289 286 286 293 299 301 300 278 289 282 185 186 184 250 246 196 303 210 156 177 185 201 185 149 128 105 130 122 104 97 116 141 116 84
13 15 5 1 7 359 353 352 356 345 337 328 309 291 289 289 294 296 297 290 270 280 261 193 191 195 243 235 268 333 166 146 175 189 118 17 92 67 127 108 134 121 86 9 224 162 112
6 2 8 7 357 3 357 349 350 353 337 331 313 294 288 288 292 295 291 273 253 259 235 201 197 213 243 173 319 13 121 117 111 140 140 133 113 110 81 103 32 77 57 154 215 144 136
3 1 357 358 4 356 2 355 350 349 348 332 321 297 291 291 295 295 287 276 256 223 196 193 197 188 236 165 232 62 136 108 98 97 97 95 81 94 57 95 38 6 204 199 248 200 126
355 356 355 353 353 357 356 0 355 351 349 342 329 310 297 295 296 292 299 270 165 214 184 198 264 354 270 202 160 139 125 120 92 102 70 46 50 83 55 104 204 191 204 213 214 206 154
345 347 348 349 349 350 352 356 357 354 356 345 337 322 305 298 289 294 337 160 51 310 169 205 228 159 124 128 124 116 134 106 82 64 147 81 116 189 198 190 163 141 160 164 225 178 146
337 335 337 340 344 344 346 349 354 354 354 352 334 331 320 301 279 284 265 152 196 172 140 218 168 79 133 178 111 149 156 113 148 165 125 49 219 194 155 178 145 127 138 176 17 143 147
333 333 330 328 332 338 340 341 344 349 351 352 342 326 319 306 274 226 206 184 162 164 133 227 206 165 189 160 165 176 135 149 154 139 172 155 199 152 145 137 124 107 161 185 165 125 329
321 322 327 329 325 330 333 335 337 339 347 347 347 321 313 311 259 197 220 163 170 154 69 208 219 220 131 137 112 160 162 171 124 159 147 138 171 156 135 153 135 169 169 124 124 109 222
323 316 313 313 317 320 323 327 329 331 333 340 346 327 309 271 271 184 175 165 174 112 12 191 169 145 128 145 137 254 150 160 166 143 119 218 158 152 150 175 157 171 105 103 89 91 42
326 319 313 304 303 305 309 314 320 323 324 329 333 336 304 247 250 214 168 170 137 48 259 191 134 166 130 170 174 138 169 78 139 92 40 101 358 67 124 76 74 139 76 48 55 74 18
336 335 322 303 296 295 297 302 307 313 316 317 321 324 270 251 212 190 166 86 44 145 45 201 190 164 169 168 182 177 171 178 161 117 186 27 1 321 121 84 38 77 82 11 356 5 218
332 339 336 326 297 287 290 291 296 301 309 310 312 313 250 235 222 171 168 62 189 204 200 162 138 109 178 162 215 181 148 203 236 103 129 149 264 175 183 177 172 177 155 160 200 194 238
337 333 344 346 337 304 282 282 283 291 300 307 311 292 210 234 194 176 87 104 207 203 169 152 96 142 224 204 164 155 195 208 206 175 148 142 123 41 50 76 104 186 190 161 105 5 53
330 330 329 334 339 333 308 272 273 278 292 303 306 276 232 179 181 149 94 235 227 199 135 130 177 163 180 192 160 178 181 205 200 183 182 196 100 18 100 97 35 153 162 88 351 138 243
330 321 327 332 333 331 326 266 264 264 277 301 269 260 174 162 152 60 198 223 241 224 161 162 192 156 201 176 176 189 201 236 168 146 128 136 102 291 101 204 178 147 195 60 117 139 169
331 331 325 331 331 327 331 310 253 248 259 278 264 233 166 160 129 197 205 191 203 188 138 226 139 147 179 171 167 209 205 233 171 150 154 178 118 155 194 198 170 183 186 158 133 214 152
333 331 336 329 329 331 332 348 243 232 226 200 240 258 185 209 177 204 255 244 196 155 200 183 208 205 182 169 183 202 192 72 161 158 162 182 191 83 3 3 7 211 196 127 108 79 195
336 334 327 338 336 331 330 340 307 220 216 193 209 225 262 221 254 171 180 218 214 191 182 178 196 137 138 177 260 175 154 138 160 147 93 91 142 163 186 187 135 183 180 171 140 128 187
336 335 333 329 334 342 334 338 327 240 208 197 164 229 195 203 229 196 175 194 178 193 201 165 206 229 167 154 120 174 139 108 26 146 79 123 176 156 257 108 146 184 171 167 187 199 181
337 334 335 341 332 334 345 343 330 341 202 198 171 196 132 278 293 191 199 214 193 190 155 209 197 194 194 168 185 191 139 188 184 167 140 2 158 103 343 241 261 252 182 191 222 215 259
330 336 332 336 342 338 335 345 341 336 341 256 238 221 112 270 244 165 209 206 224 148 218 187 201 131 182 219 123 261 130 113 144 145 147 136 135 109 239 70 59 329 220 213 191 196 186
327 330 335 332 335 336 332 330 344 340 331 305 298 291 172 228 208 221 216 195 196 204 223 189 137 148 188 116 114 61 61 73 67 47 104 134 111 83 149 44 280 242 354 209 201 110 133
324 326 329 334 334 331 335 330 329 330 321 303 278 243 263 236 210 234 254 206 91 90 109 157 113 293 158 89 83 78 2 61 45 34 48 80 126 131 152 207 303 158 203 150 167 202 169
322 321 326 327 331 332 333 330 328 329 332 321 292 244 208 155 226 265 188 185 174 155 101 51 10 38 44 107 125 159 183 174 202 73 22 82 54 121 146 174 219 246 191 140 120 280 158
318 318 320 323 329 327 332 331 330 327 328 325 304 227 252 198 244 4 168 193 154 139 121 138 146 95 36 116 133 159 199 159 167 165 165 119 106 206 189 221 282 194 156 170 138 210 133
313 315 316 319 322 325 327 325 327 331 321 322 299 253 195 231 42 1 41 187 118 158 155 159 95 33 78 196 162 187 154 205 131 150 175 163 159 185 145 214 260 144 95 178 148 67 119
308 312 313 314 318 322 324 324 328 324 325 324 257 198 180 133 53 66 92 59 50 12 107 350 96 141 169 126 144 116 138 88 129 204 173 194 183 177 182 177 48 44 106 110 121 121 120